Surface/Precipitation History
02/28/2015 01:27  to  3/1/2015 01:27
Change End Date:
Date/Time
(MST)
Sf
Temp Chem Water Layer Surface Precipitation
Sf Sub Frz Factor Pct Depth IcePct Cond Salin Type Intens Accum Rate
03/01/2015 01:25 Ice Watch 6.3F 29F - 15 - - - 14 mhos 7749 None None - -
03/01/2015 01:16 Ice Watch 6.6F 29F - 10 - - - 13 mhos 7376 None None - -
03/01/2015 01:06 Ice Watch 7.0F 30F - 10 - - - 13 mhos 7051 None None - -
03/01/2015 00:56 Ice Watch 7.2F 30F - 10 - - - 12 mhos 6656 None None - -
03/01/2015 00:55 Ice Watch 7.3F 30F - 10 - - - 12 mhos 6574 None None - -
03/01/2015 00:46 Ice Watch 7.5F 30F - 10 - - - 11 mhos 6358 None None - -
03/01/2015 00:36 Ice Watch 7.9F 30F - 5 - - - 11 mhos 6120 None None - -
03/01/2015 00:26 Ice Watch 7.9F 29F - 5 - - - 11 mhos 5988 None None - -
03/01/2015 00:25 Ice Watch 7.9F 29F - 5 - - - 11 mhos 5972 None None - -
03/01/2015 00:16 Ice Watch 8.2F 30F - 5 - - - 10 mhos 5732 None None - -
03/01/2015 00:10 Ice Watch 8.4F 29F - 5 - - - 10 mhos 5568 None None - -
03/01/2015 00:06 Ice Watch 8.4F 30F - 5 - - - 10 mhos 5507 None None - -
02/28/2015 23:57 Ice Watch 8.4F 29F - 5 - - - 10 mhos 5359 None None - -
02/28/2015 23:56 Ice Watch 8.6F 29F - 5 - - - 10 mhos 5296 None None - -
02/28/2015 23:46 Ice Watch 9.0F 30F - 5 - - - 9 mhos 5122 None None - -
Date/Time
(MST)
Sf
Temp Chem Water Layer Surface Precipitation
Sf Sub Frz Factor Pct Depth IcePct Cond Salin Type Intens Accum Rate
02/28/2015 23:36 Ice Watch 9.0F 30F - 5 - - - 9 mhos 4956 None None - -
02/28/2015 23:26 Ice Watch 9.1F 30F - 5 - - - 9 mhos 4767 None None - -
02/28/2015 23:25 Ice Watch 9.1F 30F - 5 - - - 9 mhos 4720 None None - -
02/28/2015 23:16 Ice Watch 9.3F 30F - 5 - - - 8 mhos 4530 None None - -
02/28/2015 23:10 Ice Watch 9.7F 30F - 5 - - - 8 mhos 4337 None None - -
02/28/2015 23:06 Ice Watch 9.7F 29F - 5 - - - 8 mhos 4249 None None - -
02/28/2015 22:56 Ice Watch 10.0F 30F - 5 - - - 7 mhos 3909 None None - -
02/28/2015 22:55 Ice Watch 9.9F 30F - 5 - - - 7 mhos 3914 None None - -
02/28/2015 22:45 Ice Watch 10.2F 30F - 5 - - - 7 mhos 3693 None None - -
02/28/2015 22:35 Ice Watch 10.4F 30F - 5 - - - 7 mhos 3563 None None - -
02/28/2015 22:25 Ice Watch 10.9F 30F - 5 - - - 7 mhos 3378 None None - -
02/28/2015 22:25 Ice Watch 10.9F 30F - 5 - - - 7 mhos 3378 None None - -
02/28/2015 22:15 Ice Watch 11.1F 29F - 5 - - - 6 mhos 3254 None None - -
02/28/2015 22:05 Ice Watch 11.3F 30F - 5 - - - 6 mhos 3012 None None - -
02/28/2015 21:55 Ice Watch 11.8F 29F - 5 - - - 6 mhos 2809 None None - -
Date/Time
(MST)
Sf
Temp Chem Water Layer Surface Precipitation
Sf Sub Frz Factor Pct Depth IcePct Cond Salin Type Intens Accum Rate
02/28/2015 21:55 Ice Watch 11.8F 29F - 5 - - - 6 mhos 2804 None None - -
02/28/2015 21:45 Ice Watch 12.2F 30F - 5 - - - 6 mhos 2654 None None - -
02/28/2015 21:35 Ice Watch 12.6F 30F - 5 - - - 5 mhos 2456 None None - -
02/28/2015 21:25 Ice Watch 13.1F 30F - 5 - - - 5 mhos 2297 None None - -
02/28/2015 21:25 Ice Watch 12.9F 30F - 5 - - - 5 mhos 2311 None None - -
02/28/2015 21:15 Ice Watch 13.5F 30F - 5 - - - 5 mhos 2143 None None - -
02/28/2015 21:05 Ice Watch 13.6F 30F - 5 - - - 5 mhos 2043 None None - -
02/28/2015 20:55 Ice Watch 14.2F 30F - 5 - - - 5 mhos 1902 None None - -
02/28/2015 20:55 Ice Watch 14.2F 30F - 5 - - - 5 mhos 1902 None None - -
02/28/2015 20:45 Ice Watch 14.7F 30F - 5 - - - 4 mhos 1770 None None - -
02/28/2015 20:35 Ice Watch 15.1F 30F - 5 - - - 4 mhos 1692 None None - -
02/28/2015 20:25 Ice Watch 15.1F 29F - 5 - - - 4 mhos 1619 None None - -
02/28/2015 20:25 Ice Watch 15.3F 30F - 5 - - - 4 mhos 1612 None None - -
02/28/2015 20:15 Ice Watch 15.6F 30F - 5 - - - 4 mhos 1521 None None - -
02/28/2015 20:05 Ice Watch 15.8F 29F - 5 - - - 4 mhos 1467 None None - -
Date/Time
(MST)
Sf
Temp Chem Water Layer Surface Precipitation
Sf Sub Frz Factor Pct Depth IcePct Cond Salin Type Intens Accum Rate
02/28/2015 19:55 Ice Watch 16.3F 29F - 5 - - - 4 mhos 1395 None None - -
02/28/2015 19:55 Ice Watch 16.3F 29F - 5 - - - 4 mhos 1390 None None - -
02/28/2015 19:45 Ice Watch 17.1F 30F - 5 - - - 4 mhos 1294 None None - -
02/28/2015 19:35 Ice Watch 17.4F 29F - 5 - - - 4 mhos 1233 None None - -
02/28/2015 19:25 Ice Watch 18.0F 29F - 5 - - - 4 mhos 1159 None None - -
02/28/2015 19:24 Ice Watch 18.0F 29F - 5 - - - 4 mhos 1155 None None - -
02/28/2015 19:14 Ice Watch 18.5F 29F - 5 - - - 4 mhos 1069 None None - -
02/28/2015 19:04 Ice Watch 19.0F 29F - 5 - - - 3 mhos 990 None None - -
02/28/2015 18:55 Ice Watch 19.2F 29F - 5 - - - 3 mhos 952 None None - -
02/28/2015 18:54 Ice Watch 19.4F 29F - 5 - - - 3 mhos 941 None None - -
02/28/2015 18:44 Ice Watch 19.9F 29F - 5 - - - 3 mhos 891 None None - -
02/28/2015 18:40 Ice Watch 20.3F 29F - 5 - - - 3 mhos 862 None None - -
02/28/2015 18:34 Ice Watch 20.7F 29F - 5 - - - 3 mhos 820 None None - -
02/28/2015 18:25 Ice Watch 21.2F 29F - 5 - - - 3 mhos 778 None None - -
02/28/2015 18:24 Ice Watch 21.4F 29F - 5 - - - 3 mhos 767 None None - -
Date/Time
(MST)
Sf
Temp Chem Water Layer Surface Precipitation
Sf Sub Frz Factor Pct Depth IcePct Cond Salin Type Intens Accum Rate
02/28/2015 18:14 Ice Watch 22.3F 29F - 5 - - - 3 mhos 699 None None - -
02/28/2015 18:10 Ice Watch 22.6F 29F - 5 - - - 3 mhos 670 None None - -
02/28/2015 18:04 Ice Watch 23.2F 29F - 5 - - - 3 mhos 635 None None - -
02/28/2015 17:55 Ice Watch 24.1F 29F - 5 - - - 3 mhos 577 None None - -
02/28/2015 17:54 Ice Watch 24.1F 29F - 5 - - - 3 mhos 576 None None - -
02/28/2015 17:44 Ice Watch 25.7F 29F - 5 - - - 3 mhos 497 None None - -
02/28/2015 17:40 Ice Watch 26.4F 29F - 5 - - - 3 mhos 462 None None - -
02/28/2015 17:34 Ice Watch 27.0F 29F - 5 - - - 3 mhos 442 None None - -
02/28/2015 17:25 Ice Watch 27.9F 29F - 5 - - - 3 mhos 418 None None - -
02/28/2015 17:24 Ice Watch 28.0F 29F - 5 - - - 3 mhos 406 None None - -
02/28/2015 17:14 Ice Watch 30.2F 29F - 5 - - - 3 mhos 334 None None - -
02/28/2015 17:10 Ice Watch 30.6F 29F - 5 - - - 3 mhos 324 None None - -
02/28/2015 17:04 Ice Watch 31.1F 29F - 5 - - - 3 mhos 311 None None - -
02/28/2015 16:55 Ice Watch 31.3F 29F - 5 - - - 3 mhos 310 None None - -
02/28/2015 16:54 Ice Watch 30.6F 29F - 5 - - - 3 mhos 332 None None - -
Date/Time
(MST)
Sf
Temp Chem Water Layer Surface Precipitation
Sf Sub Frz Factor Pct Depth IcePct Cond Salin Type Intens Accum Rate
02/28/2015 16:44 Trace Moisture 33.1F 29F - 5 - - - 3 mhos 295 None None - -
02/28/2015 16:40 Trace Moisture 35.6F 29F - 5 - - - 3 mhos 273 None None - -
02/28/2015 16:34 Trace Moisture 36.0F 29F - 5 - - - 3 mhos 265 None None - -
02/28/2015 16:25 Trace Moisture 36.1F 29F - 5 - - - 1 mhos 70 None None - -
02/28/2015 16:23 Trace Moisture 36.1F 29F - 5 - - - 1 mhos 70 None None - -
02/28/2015 16:13 Trace Moisture 36.0F 29F - 5 - - - 1 mhos 70 None None - -
02/28/2015 16:10 Trace Moisture 36.9F 29F - 5 - - - 1 mhos 69 None None - -
02/28/2015 16:03 Trace Moisture 36.1F 29F - 5 - - - 1 mhos 69 None None - -
02/28/2015 15:55 Trace Moisture 37.2F 29F - 5 - - - 1 mhos 68 None None - -
02/28/2015 15:53 Trace Moisture 37.2F 29F - 5 - - - 1 mhos 68 None None - -
02/28/2015 15:43 Trace Moisture 37.6F 29F - 5 - - - 4 mhos 339 None None - -
02/28/2015 15:40 Trace Moisture 37.8F 29F - 5 - - - 3 mhos 279 None None - -
02/28/2015 15:33 Trace Moisture 39.6F 29F - 5 - - - 4 mhos 328 None None - -
02/28/2015 15:25 Dry 42.3F 29F - - - - - 4 mhos 332 None None - -
02/28/2015 15:23 Dry 42.3F 29F - - - - - 4 mhos 329 None None - -
Date/Time
(MST)
Sf
Temp Chem Water Layer Surface Precipitation
Sf Sub Frz Factor Pct Depth IcePct Cond Salin Type Intens Accum Rate
02/28/2015 15:13 Dry 42.1F 29F - - - - - 4 mhos 349 None None - -
02/28/2015 15:10 Dry 43.5F 29F - - - - - 4 mhos 330 None None - -
02/28/2015 15:03 Dry 43.2F 29F - - - - - 4 mhos 329 None None - -
02/28/2015 14:55 Dry 42.4F 29F - - - - - 3 mhos 247 None None - -
02/28/2015 14:53 Dry 42.3F 29F - - - - - 3 mhos 243 None None - -
02/28/2015 14:43 Dry 42.3F 29F - - - - - 3 mhos 242 None None - -
02/28/2015 14:40 Dry 41.7F 29F - - - - - 3 mhos 253 None None - -
02/28/2015 14:33 Dry 43.0F 29F - - - - - 3 mhos 254 None None - -
02/28/2015 14:25 Dry 45.7F 29F - - - - - 4 mhos 311 None None - -
02/28/2015 14:23 Dry 46.4F 29F - - - - - 3 mhos 293 None None - -
02/28/2015 14:13 Dry 44.4F 29F - - - - - 3 mhos 296 None None - -
02/28/2015 14:10 Dry 46.0F 29F - - - - - 3 mhos 272 None None - -
02/28/2015 14:03 Dry 46.2F 29F - - - - - 3 mhos 246 None None - -
02/28/2015 13:55 Dry 43.2F 29F - - - - - 3 mhos 248 None None - -
02/28/2015 13:53 Dry 43.0F 29F - - - - - 3 mhos 241 None None - -
Date/Time
(MST)
Sf
Temp Chem Water Layer Surface Precipitation
Sf Sub Frz Factor Pct Depth IcePct Cond Salin Type Intens Accum Rate
02/28/2015 13:43 Dry 42.8F 29F - - - - - 1 mhos 60 None None - -
02/28/2015 13:40 Dry 42.1F 29F - - - - - 1 mhos 65 None None - -
02/28/2015 13:33 Dry 42.1F 29F - - - - - 1 mhos 65 None None - -
02/28/2015 13:25 Dry 42.3F 29F - - - - - 1 mhos 60 None None - -
02/28/2015 13:23 Dry 42.1F 29F - - - - - 3 mhos 241 None None - -
02/28/2015 13:13 Dry 39.7F 29F - - - - - 1 mhos 60 None None - -
02/28/2015 13:10 Dry 37.2F 29F - - - - - 1 mhos 69 None None - -
02/28/2015 13:03 Dry 38.3F 29F - - - - - 7 mhos 609 None None - -
02/28/2015 12:55 Dry 37.6F 29F - - - - - 12 mhos 1192 None None - -
02/28/2015 12:52 Dry 38.1F 29F - - - - - 14 mhos 1393 None None - -
02/28/2015 12:42 Trace Moisture 36.3F 29F - 5 - - - 27 mhos 2843 None None - -
02/28/2015 12:40 Trace Moisture 36.5F 29F - 5 - - - 33 mhos 3567 None None - -
02/28/2015 12:32 Wet 34.5F 29F 24F 5 21% 0.70 in 0% 51 mhos 6246 None None - -
02/28/2015 12:27 Wet 35.2F 30F 3F 5 50% 0.70 in 0% 79 mhos 15000 None None - -
02/28/2015 12:22 Wet 33.8F 30F 3F 5 50% 0.70 in 0% 102 mhos 15000 None None - -
Date/Time
(MST)
Sf
Temp Chem Water Layer Surface Precipitation
Sf Sub Frz Factor Pct Depth IcePct Cond Salin Type Intens Accum Rate
02/28/2015 12:12 Wet 33.1F 30F 3F 5 50% 0.70 in 0% 196 mhos 15000 None None - -
02/28/2015 12:02 Chemically Wet 30.2F 30F 3F 5 50% 0.80 in 0% 300 mhos 15000 None None - -
02/28/2015 11:55 Chemically Wet 29.1F 29F 3F 5 50% 0.70 in 0% 407 mhos 15000 None None - -
02/28/2015 11:52 Chemically Wet 29.1F 30F 3F 5 50% 0.70 in 0% 439 mhos 15000 None None - -
02/28/2015 11:42 Chemically Wet 26.2F 30F 3F 5 50% 0.70 in 0% 518 mhos 15000 Yes - - -
02/28/2015 11:40 Chemically Wet 26.4F 30F 3F 5 50% 0.70 in 0% 571 mhos 15000 None None - -
02/28/2015 11:32 Chemically Wet 25.3F 30F 3F 5 50% 0.70 in 0% 634 mhos 15000 None None - -
02/28/2015 11:25 Chemically Wet 24.3F 30F 3F 5 50% 0.70 in 0% 634 mhos 15000 None None - -
02/28/2015 11:22 Chemically Wet 24.1F 30F 3F 5 50% 0.70 in 0% 634 mhos 15000 None None - -
02/28/2015 11:12 Chemically Wet 23.0F 30F 3F 5 50% 0.70 in 0% 634 mhos 15000 None None - -
02/28/2015 11:10 Chemically Wet 22.5F 30F 3F 5 50% 0.70 in 0% 571 mhos 15000 None None - -
02/28/2015 11:02 Chemically Wet 22.3F 30F 3F 5 50% 0.70 in 0% 571 mhos 15000 None None - -
02/28/2015 10:55 Chemically Wet 21.9F 30F 3F 5 50% 0.70 in 0% 518 mhos 15000 None None - -
02/28/2015 10:52 Chemically Wet 21.9F 29F 3F 5 50% 0.70 in 0% 476 mhos 15000 None None - -
02/28/2015 10:42 Chemically Wet 22.3F 30F 3F 5 50% 0.70 in 0% 356 mhos 15000 Yes - - -
Date/Time
(MST)
Sf
Temp Chem Water Layer Surface Precipitation
Sf Sub Frz Factor Pct Depth IcePct Cond Salin Type Intens Accum Rate
02/28/2015 10:32 Chemically Wet 22.3F 30F 3F 5 50% 0.70 in 0% 300 mhos 15000 None None - -
02/28/2015 10:25 Chemically Wet 21.7F 29F 3F 5 50% 0.70 in 0% 271 mhos 15000 None None - -
02/28/2015 10:22 Chemically Wet 21.7F 30F 3F 5 50% 0.70 in 0% 248 mhos 15000 Yes - - -
02/28/2015 10:12 Chemically Wet 21.7F 30F 3F 5 50% 0.70 in 0% 154 mhos 15000 None None - -
02/28/2015 10:10 Chemically Wet 21.7F 30F 3F 5 50% 0.70 in 0% 136 mhos 15000 None None - -
02/28/2015 10:02 Chemically Wet 22.3F 30F 3F 5 50% 0.70 in 0% 69 mhos 15000 None None - -
02/28/2015 09:55 Chemically Wet 22.1F 30F 3F 5 50% 0.70 in 0% 72 mhos 15000 None None - -
02/28/2015 09:52 Chemically Wet 22.3F 30F 3F 5 50% 0.70 in 0% 76 mhos 15000 Yes - - -
02/28/2015 09:42 Chemically Wet 21.0F 30F 3F 5 50% 0.70 in 0% 89 mhos 15000 Yes - - -
02/28/2015 09:41 Chemically Wet 20.8F 30F 3F 5 50% 0.70 in 0% 90 mhos 15000 None None - -
02/28/2015 09:32 Chemically Wet 19.0F 30F 3F 5 50% 0.70 in 0% 95 mhos 15000 None None - -
02/28/2015 09:25 Chemically Wet 18.3F 30F 3F 5 50% 0.70 in 0% 100 mhos 15000 None None - -
02/28/2015 09:22 Chemically Wet 18.3F 30F 3F 5 50% 0.70 in 0% 105 mhos 15000 None None - -
02/28/2015 09:11 Chemically Wet 17.2F 30F 3F 5 50% 0.70 in 0% 116 mhos 15000 None None - -
02/28/2015 09:01 Chemically Wet 16.3F 30F 3F 5 50% 0.70 in 0% 119 mhos 15000 Yes - - -
Date/Time
(MST)
Sf
Temp Chem Water Layer Surface Precipitation
Sf Sub Frz Factor Pct Depth IcePct Cond Salin Type Intens Accum Rate
02/28/2015 08:56 Chemically Wet 16.2F 30F 3F 5 50% 0.70 in 0% 121 mhos 15000 None None - -
02/28/2015 08:51 Chemically Wet 15.8F 30F 3F 5 50% 0.70 in 0% 127 mhos 15000 None None - -
02/28/2015 08:41 Chemically Wet 15.1F 30F 3F 5 50% 0.70 in 0% 136 mhos 15000 None None - -
02/28/2015 08:40 Chemically Wet 15.1F 30F 3F 5 50% 0.70 in 0% 132 mhos 15000 None None - -
02/28/2015 08:31 Chemically Wet 14.5F 30F 3F 5 50% 0.70 in 0% 142 mhos 15000 None None - -
02/28/2015 08:25 Chemically Wet 14.2F 30F 3F 5 50% 0.70 in 0% 146 mhos 15000 None None - -
02/28/2015 08:21 Chemically Wet 14.0F 30F 3F 5 50% 0.70 in 0% 146 mhos 15000 None None - -
02/28/2015 08:11 Chemically Wet 13.3F 30F 3F 5 50% 0.70 in 0% 150 mhos 15000 None None - -
02/28/2015 08:10 Chemically Wet 13.5F 30F 3F 5 50% 0.70 in 0% 150 mhos 15000 None None - -
02/28/2015 08:01 Chemically Wet 13.1F 30F 3F 5 50% 0.70 in 0% 154 mhos 15000 None None - -
02/28/2015 07:55 Chemically Wet 12.9F 30F 3F 5 50% 0.80 in 0% 154 mhos 15000 None None - -
02/28/2015 07:51 Chemically Wet 12.6F 30F 3F 5 50% 0.70 in 0% 154 mhos 15000 None None - -
02/28/2015 07:41 Chemically Wet 12.4F 30F 3F 5 50% 0.70 in 0% 154 mhos 15000 None None - -
02/28/2015 07:40 Chemically Wet 12.6F 30F 3F 5 50% 0.70 in 0% 154 mhos 15000 None None - -
02/28/2015 07:31 Chemically Wet 12.4F 30F 3F 5 50% 0.80 in 0% 158 mhos 15000 None None - -
Date/Time
(MST)
Sf
Temp Chem Water Layer Surface Precipitation
Sf Sub Frz Factor Pct Depth IcePct Cond Salin Type Intens Accum Rate
02/28/2015 07:25 Chemically Wet 12.2F 30F 3F 5 50% 0.70 in 0% 154 mhos 15000 None None - -
02/28/2015 07:21 Chemically Wet 12.2F 30F 3F 5 50% 0.70 in 0% 154 mhos 15000 None None - -
02/28/2015 07:11 Chemically Wet 12.0F 30F 3F 5 50% 0.80 in 0% 146 mhos 15000 None None - -
02/28/2015 07:10 Chemically Wet 12.2F 30F 3F 5 50% 0.70 in 0% 146 mhos 15000 None None - -
02/28/2015 07:01 Chemically Wet 12.2F 30F 3F 5 50% 0.70 in 0% 146 mhos 15000 Yes - - -
02/28/2015 06:56 Chemically Wet 12.2F 30F 3F 5 50% 0.70 in 0% 146 mhos 15000 Yes - - -
02/28/2015 06:51 Chemically Wet 12.0F 30F 3F 5 50% 0.70 in 0% 142 mhos 15000 None None - -
02/28/2015 06:41 Chemically Wet 12.2F 30F 3F 5 50% 0.70 in 0% 142 mhos 15000 Yes - - -
02/28/2015 06:31 Chemically Wet 12.2F 30F 3F 5 50% 0.70 in 0% 139 mhos 15000 None None - -
02/28/2015 06:25 Chemically Wet 12.2F 30F 3F 5 50% 0.00 in 0% 145 mhos 15000 None None - -
02/28/2015 06:21 Chemically Wet 12.2F 30F 3F 5 50% 0.00 in 0% 145 mhos 15000 None None - -
02/28/2015 06:10 Chemically Wet 12.2F 30F 3F 10 50% 0.00 in 0% 142 mhos 15000 None None - -
02/28/2015 06:00 Chemically Wet 12.2F 30F 3F 15 50% 0.00 in 0% 135 mhos 15000 None None - -
02/28/2015 05:55 Chemically Wet 12.4F 30F 3F 20 50% 0.00 in 0% 132 mhos 15000 None None - -
02/28/2015 05:50 Chemically Wet 12.2F 30F 3F 20 50% 0.00 in 0% 126 mhos 15000 None None - -
Date/Time
(MST)
Sf
Temp Chem Water Layer Surface Precipitation
Sf Sub Frz Factor Pct Depth IcePct Cond Salin Type Intens Accum Rate
02/28/2015 05:40 Chemically Wet 12.2F 30F 3F 25 50% 0.00 in 0% 116 mhos 15000 None None - -
02/28/2015 05:30 Chemically Wet 12.2F 30F 3F 25 50% 0.00 in 0% 106 mhos 15000 None None - -
02/28/2015 05:25 Chemically Wet 12.2F 30F 3F 25 50% 0.00 in 0% 100 mhos 15000 None None - -
02/28/2015 05:20 Chemically Wet 12.2F 30F 3F 25 50% 0.00 in 0% 95 mhos 15000 None None - -
02/28/2015 05:10 Chemically Wet 12.2F 30F 3F 30 50% 0.00 in 0% 88 mhos 15000 None None - -
02/28/2015 05:00 Chemically Wet 12.0F 30F 3F 30 50% 0.00 in 0% 83 mhos 15000 None None - -
02/28/2015 04:55 Chemically Wet 12.0F 30F 3F 30 50% 0.00 in 0% 82 mhos 15000 None None - -
02/28/2015 04:50 Chemically Wet 12.2F 30F 3F 30 50% 0.00 in 0% 80 mhos 15000 None None - -
02/28/2015 04:40 Chemically Wet 12.4F 30F 3F 30 50% 0.00 in 0% 74 mhos 15000 None None - -
02/28/2015 04:40 Chemically Wet 12.6F 30F 3F 30 50% 0.00 in 0% 73 mhos 15000 None None - -
02/28/2015 04:30 Chemically Wet 12.4F 30F 3F 30 50% 0.00 in 0% 67 mhos 15000 None None - -
02/28/2015 04:25 Chemically Wet 12.4F 30F 3F 30 50% 0.00 in 0% 61 mhos 15000 None None - -
02/28/2015 04:20 Chemically Wet 12.4F 30F 3F 30 50% 0.00 in 0% 56 mhos 15000 None None - -
02/28/2015 04:10 Chemically Wet 12.4F 30F 14F 30 37% - 53% 46 mhos 11151 None None - -
02/28/2015 04:10 Chemically Wet 12.4F 30F 14F 30 37% - 53% 45 mhos 11031 None None - -
Date/Time
(MST)
Sf
Temp Chem Water Layer Surface Precipitation
Sf Sub Frz Factor Pct Depth IcePct Cond Salin Type Intens Accum Rate
02/28/2015 04:00 Chemically Wet 12.2F 30F 17F 25 33% - 59% 34 mhos 9789 None None - -
02/28/2015 03:55 Chemically Wet 12.0F 30F 18F 25 31% - 61% 31 mhos 9343 None None - -
02/28/2015 03:50 Chemically Wet 11.8F 30F 19F 20 30% - 62% 29 mhos 9123 None None - -
02/28/2015 03:40 Chemically Wet 11.8F 30F 20F 20 28% - 65% 25 mhos 8384 None None - -
02/28/2015 03:30 Chemically Wet 11.8F 30F 21F 15 26% - 67% 22 mhos 7829 None None - -
02/28/2015 03:25 Chemically Wet 11.7F 30F 22F 15 26% - 68% 21 mhos 7691 Yes - - -
02/28/2015 03:20 Chemically Wet 11.7F 30F 22F 15 25% - 69% 21 mhos 7490 None None - -
02/28/2015 03:10 Chemically Wet 12.2F 30F 23F 10 23% - 71% 19 mhos 6827 None None - -
02/28/2015 03:00 Chemically Wet 12.4F 30F 24F 10 21% - 73% 17 mhos 6268 None None - -
02/28/2015 02:55 Chemically Wet 12.4F 30F 24F 10 21% - 74% 16 mhos 6167 None None - -
02/28/2015 02:50 Chemically Wet 12.6F 30F 25F 10 20% - 74% 16 mhos 6032 None None - -
02/28/2015 02:39 Ice Watch 13.1F 30F - 5 - - - 15 mhos 5678 None None - -
02/28/2015 02:29 Ice Watch 13.5F 30F - 5 - - - 12 mhos 4638 None None - -
02/28/2015 02:25 Ice Watch 13.5F 30F - 5 - - - 11 mhos 4457 None None - -
02/28/2015 02:19 Ice Watch 14.0F 30F - 5 - - - 10 mhos 4025 None None - -
Date/Time
(MST)
Sf
Temp Chem Water Layer Surface Precipitation
Sf Sub Frz Factor Pct Depth IcePct Cond Salin Type Intens Accum Rate
02/28/2015 02:09 Ice Watch 14.2F 30F - 5 - - - 10 mhos 3834 None None - -
02/28/2015 01:59 Ice Watch 14.0F 30F - 5 - - - 9 mhos 3383 None None - -
02/28/2015 01:55 Ice Watch 14.2F 30F - 5 - - - 8 mhos 3282 None None - -
02/28/2015 01:49 Ice Watch 14.4F 30F - 5 - - - 8 mhos 3207 None None - -
02/28/2015 01:39 Ice Watch 14.5F 30F - 5 - - - 8 mhos 3044 None None - -
02/28/2015 01:29 Ice Watch 15.1F 30F - 5 - - - 7 mhos 2782 None None - -
Change End Date:
Copyright © 1998-2005 Surface Systems, Inc.
All Rights Reserved
Send comments about the data to:
SCAN Web ® is a registered trademark of Surface Systems, Inc.
SCAN Web Version 5.6